Regional Weather Roundup
Issued by NWS Upton, NY

Current Version | Previous Version | Text Only | Print | Product List | Glossary Off
Versions: 1 2 3 4 5 6 7 8 9 10 11 12 13 14 15 16 17 18 19 20 21 22 23 24 25 26 27 28 29 30 31 32 33 34 35 36 37 38 39 40 41 42 43 44 45 46 47 48 49 50
000 ASUS41 KOKX 270805 RWROKX REGIONAL WEATHER ROUNDUP NATIONAL WEATHER SERVICE NEW YORK NY 300 AM EST TUE JAN 27 2015 NOTE: "FAIR" INDICATES FEW OR NO CLOUDS BELOW 12,000 FEET WITH NO SIGNIFICANT WEATHER AND/OR OBSTRUCTIONS TO VISIBILITY. NYZ071-072-176-178-NJZ106-104-270900- NEW YORK CITY METRO AREA CITY SKY/WX TMP DP RH WIND PRES REMARKS CENTRAL PARK LGT SNOW 22 17 81 NE8G18 29.69S VSB 3/4 WCI 12 LAGUARDIA APRT NOT AVBL KENNEDY INTL NOT AVBL NEWARK/LIBERTY NOT AVBL BRNX BOT. GARD N/A N/A N/A N/A W5 29.68S TETERBORO NOT AVBL $$ NYZ177-179-078>081-270900- LONG ISLAND NEW YORK CITY SKY/WX TMP DP RH WIND PRES REMARKS FARMINGDALE NOT AVBL ISLIP NOT AVBL SHIRLEY NOT AVBL WESTHAMPTON FOG 23 19 85 N30G41 29.58F VSB 1/4 WCI 5 MONTAUK POINT NOT AVBL $$ NYZ052-065-067-270900- HUDSON VALLEY CITY SKY/WX TMP DP RH WIND PRES REMARKS WHITE PLAINS NOT AVBL NEWBURGH LGT SNOW 18 16 93 N14G24 29.75R VSB 1 WCI 4 MONTGOMERY LGT SNOW 20 16 84 NE14G24 29.74 FOG WCI 7 POUGHKEEPSIE NOT AVBL ALBANY NOT AVBL $$ NJZ001-105-106-008-010-013-015-019>022-104-270900- NEW JERSEY CITY SKY/WX TMP DP RH WIND PRES REMARKS NEWARK/LIBERTY NOT AVBL TETERBORO NOT AVBL CALDWELL LGT SNOW 21 18 88 VRB7 29.70S VSB 1 WCI 12 MORRISTOWN LGT SNOW 25 19 80 N12G17 29.70S WCI 14 SOMERVILLE LGT SNOW 24 18 77 N10G17 29.69R WCI 14 SUSSEX NOT AVBL ANDOVER NOT AVBL TRENTON NOT AVBL MILLVILLE NOT AVBL ATLANTIC CITY NOT AVBL WRIGHTSTOWN LGT SNOW 23 20 87 N16G24 29.65R FOG WCI 10 TOMS RIVER CLOUDY 25 19 80 N13 29.64S WCI 13 BELMAR CLOUDY 25 18 74 N14 29.63S WCI 13 $$ PAZ047>061-062-071-270900- EASTERN PENNSYLVANIA CITY SKY/WX TMP DP RH WIND PRES REMARKS PHILADELPHIA NOT AVBL ALLENTOWN NOT AVBL SCRANTON NOT AVBL $$ CTZ002-004>006-009-010-012-RIZ004-006-007-MAZ004-011-015-270900- SOUTHERN NEW ENGLAND IN CT CITY SKY/WX TMP DP RH WIND PRES REMARKS BRADLEY INTL SNOW 17 12 80 N20 29.74 VSB 1/2 WCI 1 HARTFORD FOG 17 14 88 N17 29.74 VSB 1/4 WCI 1 DANBURY SNOW 20 15 81 N17 29.70R VSB 1/2 WCI 5 WTRBRY/OXFORD CLOUDY 18 7 62 NE23G33 29.64S VSB 1/2 WCI 0 BRIDGEPORT SNOW 20 18 92 N20 29.67S VSB 1/2 WCI 4 MERIDEN FOG 17 13 84 N18G29 29.69S VSB 1/4 WCI 1 NEW HAVEN HVY SNOW 19 15 84 N25G33 29.64 VSB 1/4 WCI 1 CHESTER HVY SNOW 19 18 93 N22G32 29.61F VSB 1/4 WCI 3 GROTON NOT AVBL WILLIMANTIC NOT AVBL IN RI CITY SKY/WX TMP DP RH WIND PRES REMARKS PROVIDENCE NOT AVBL BLOCK ISLAND N/A 21 18 86 N35G47 29.45F VSB 1/2 WCI 2 WESTERLY NOT AVBL IN MA CITY SKY/WX TMP DP RH WIND PRES REMARKS BOSTON NOT AVBL WORCESTER NOT AVBL WESTFIELD SNOW 16 11 80 N22 29.77R VSB 1/2 WCI -2 PROVINCETOWN CLOUDY 30 28 93 NE41G58 29.55F VSB 1/4 WCI 13 NANTUCKET NOT AVBL $$ ANZ330-335-338-340-345-350-353-355-270900- COASTAL MARINE OBSERVATIONS STATION/POSITION TIME SKY/WX TEMP WIND PRES VSBY WAVE AIR SEA DIR/SP/G HT/PER (UTC) (F) (DEG/KT/KT) (MB) (MI) (FT/S) NY HARB ENTRANCE NOT AVBL 4S FIRE IS 0700 39 N/A 9/ 9 20S FIRE ISLAND NOT AVBL 23SW MTP NOT AVBL HUDSON CANYON NOT AVBL EXECUTION ROCKS 0700 25 34 10/ 19/ 23 N/A WESTERN LI SOUND 0700 24 30/ 17/ 21 N/A 3/ 5 CENTRAL LI SOUND 0700 23 36 20/ 27/ 35 N/A 5/ 5 EASTERN LI SOUND NOT AVBL ROBBINS REEF 0800 22 360/ 20/ 24 1003.5 $$ >>>>>>>>>>>>>>>>>>>>>>>>>>>> KEY <<<<<<<<<<<<<<<<<<<<<<<<<<< > < > SKY/WX - SKY CONDITION/PRESENT WEATHER < > TMP - TEMPERATURE IN FAHRENHEIT < > DP - DEWPOINT IN FAHRENHEIT < > RH - RELATIVE HUMIDITY IN PERCENT < > WIND - DIRECTION AND SPEED IN MPH < > PRES - MEAN SEA LEVEL PRESSURE IN INCHES OF HG < > WCI - WIND CHILL INDEX < > VSB - VISIBILITY IN MILES < > HX - HEAT INDEX < > TC - TEMPERATURE IN CELSIUS < > VRB - VARIABLE WIND DIRECTION < > < >>>>>>>>>>>>>>>>>>>>>>>>>>>> KEY <<<<<<<<<<<<<<<<<<<<<<<<<<<

USA.gov is the U.S. government's official web portal to all federal, state and local government web resources and services.